Location: Balsareny
(41.8670°N, 1.8830°E)
Time: 19:13:01
(UTC+01:00)

X-37B - Pass Details

Date: 10 December 2021
Orbit: 334 x 337 km, 45.0° (Epoch: 11 January)

Event Time Altitude Azimuth Distance (km) Brightness Sun altitude
Rises 19:12:46 0° 271° (W) 2,101 5.7 -20.0°
Reaches altitude 10° 19:14:49 10° 278° (W) 1,265 4.2 -20.4°
Enters shadow 19:16:46 33° 307° (NW) 581 1.8 -20.7°
